{"data":{"norad_id":58670,"intl_designator":"2023-211D","name":"STARLINK-31083","alt_names":[],"object_type":"PAYLOAD","status":"ACTIVE","operator":null,"country":"US","launch_date":"2023-12-29","launch_site_code":"AFETR","launch_vehicle":null,"mission":null,"orbit_class":"UNKNOWN","rcs_meters":null,"size_class":null,"mass_kg":null,"dimensions":null,"purposes":["comms"],"wikipedia_slug":null,"has_3d_model":false,"image_url":null,"decayed_at":null,"tle_current":{"epoch":"2026-09-19T18:56:04.377120Z","epoch_age_seconds":211256,"freshness":"STALE","line1":"1 58670U 23211D   26262.78893955  .00001049  00000+0  47638-4 0  9992","line2":"2 58670  43.0051  68.7601 0001666 267.7643  92.3018 15.27584479152152","mean_motion":15.27584479,"eccentricity":0.0001666,"inclination_deg":43.0051,"raan_deg":68.7601,"arg_perigee_deg":267.7643,"mean_anomaly_deg":92.3018,"bstar":4.7638e-5,"rev_number":15215,"period_min":94.266472315997,"perigee_km":481.8926129659,"apogee_km":484.17875570432,"semimajor_km":6861.1726843351,"source":"CELESTRAK","updated_at":"2026-09-21T09:00:33.942333Z"}}}